Theta_e
308 308 307 306 305 303 302 300 299 299 300 292 288 291 284 282 283 287 292 293 293 286 281 283 279 278 273 271 275 277 278 275 275 275 275 274 277 274 274 272 272 272 272 272 273 273 270 270 269 272 271 267 267 267 267 266 267 269 272 272 273 280 269 268 270 268 266 269 271 268 265 267 269 269 269 269 270 272 272 272 271 268 271 268 269 267 272
309 308 307 306 305 304 302 301 300 299 299 292 290 286 284 284 283 285 292 294 292 282 277 277 277 276 268 273 272 275 273 273 271 273 275 273 271 272 271 271 271 269 268 270 270 273 267 271 270 270 271 268 265 267 266 266 270 270 270 269 271 267 269 269 266 265 266 264 267 266 266 266 265 266 269 268 268 265 267 266 268 267 270 271 268 265 271
309 308 307 307 306 304 302 301 300 299 300 297 290 285 285 284 284 283 287 290 286 280 280 280 279 276 270 269 270 271 272 272 272 272 273 273 272 271 270 270 270 268 268 264 268 269 269 267 269 269 271 267 268 267 266 266 269 271 272 274 269 268 268 269 263 261 259 259 260 263 263 263 265 266 265 264 267 267 266 265 268 265 271 271 268 269 274
309 308 308 307 306 304 303 301 300 299 299 299 292 287 284 281 276 281 281 283 282 281 278 278 278 273 269 268 270 271 270 271 272 273 270 273 272 273 270 271 271 268 268 266 265 268 270 267 266 267 266 266 265 261 265 266 268 272 275 272 269 267 267 265 266 265 266 264 263 263 264 264 262 264 266 265 265 267 267 267 266 267 270 269 271 272 273
309 308 308 307 306 305 303 302 300 300 299 300 290 287 285 284 280 278 275 280 280 279 279 276 277 276 275 273 270 268 270 269 269 274 269 272 272 270 270 268 267 266 266 265 265 266 266 268 264 266 267 264 265 261 262 262 269 273 272 272 268 267 263 265 263 263 262 260 261 262 263 262 266 266 264 266 265 265 265 266 266 271 267 265 272 272 270
309 308 308 307 306 305 304 302 301 300 299 300 291 283 283 278 282 284 280 277 275 275 277 278 276 274 276 274 270 270 268 266 267 268 269 266 267 268 266 265 268 268 268 265 264 262 262 261 262 262 262 261 262 263 263 261 269 271 269 269 266 265 263 260 261 261 257 259 260 259 259 261 262 263 263 264 266 265 264 265 269 267 267 267 267 266 270
309 309 308 307 306 305 304 303 301 300 299 299 290 281 283 283 280 279 276 279 279 278 277 279 277 273 275 274 271 269 269 268 270 267 265 267 266 269 267 267 268 269 269 269 265 264 263 264 263 261 262 263 262 263 263 265 269 269 268 266 264 264 266 258 259 258 258 258 259 257 258 261 260 261 262 264 265 266 266 266 267 267 268 270 271 270 269
309 309 308 307 306 305 304 303 301 300 299 296 287 285 280 277 279 276 276 276 272 271 274 277 276 273 277 274 271 271 270 270 268 268 266 264 265 267 266 268 268 269 269 269 268 266 267 265 262 264 262 262 264 263 266 264 267 268 266 264 266 266 265 264 259 259 261 257 258 259 259 259 258 262 262 263 263 264 266 266 267 267 267 269 269 268 269
310 309 308 308 307 306 304 303 302 300 299 290 286 284 285 284 283 283 278 276 273 272 275 276 275 274 274 274 273 270 271 271 271 268 267 268 267 267 269 270 268 267 268 267 267 268 267 266 266 267 267 266 266 267 265 266 263 263 264 263 262 263 261 259 261 259 258 255 256 259 260 259 258 259 260 262 262 261 263 263 267 266 266 267 266 266 267
310 309 309 308 307 306 304 303 302 300 299 289 287 282 283 283 279 280 284 279 278 275 275 275 275 273 276 275 274 272 272 272 272 269 266 265 266 267 269 269 269 263 265 267 268 269 269 267 267 267 265 266 266 267 267 267 266 265 264 263 262 262 262 260 261 259 258 255 255 256 256 257 258 261 263 263 264 265 266 267 268 269 269 266 264 266 272
310 309 308 308 307 306 305 303 302 300 296 289 285 283 282 282 280 282 284 280 275 276 274 275 275 278 277 277 271 270 272 272 273 272 267 263 263 259 262 269 269 267 266 267 271 271 270 270 269 268 268 268 267 268 269 267 267 266 265 261 262 261 262 262 263 258 258 253 254 256 257 257 260 262 263 267 264 264 264 265 267 268 270 269 271 272 272
310 309 308 308 307 306 305 303 302 300 298 292 289 285 284 286 284 283 282 277 277 275 275 274 276 276 275 277 274 271 271 271 271 266 267 262 261 259 262 266 266 268 267 272 272 271 271 271 269 269 268 267 267 267 266 265 267 270 268 264 261 261 262 262 262 260 259 254 255 257 255 258 263 262 265 266 267 267 266 267 268 269 270 271 270 272 272
310 309 308 308 307 306 305 304 302 301 299 293 289 284 284 287 285 282 283 280 276 273 272 274 266 272 274 273 269 266 268 267 267 266 264 261 261 263 265 266 265 266 272 271 271 270 265 260 262 261 262 263 262 263 263 263 264 267 268 268 265 262 262 262 261 261 261 258 258 251 257 263 264 265 266 267 266 267 265 264 267 269 270 270 270 271 272
310 310 308 308 307 306 305 304 303 301 300 295 288 286 285 285 284 283 283 279 279 275 276 270 269 270 271 272 267 266 267 266 266 266 263 265 263 263 265 267 270 272 272 271 268 266 264 264 261 262 259 260 259 258 259 262 261 263 265 266 268 263 263 263 259 261 256 258 258 261 264 265 267 262 263 264 263 263 263 261 266 270 270 270 270 271 272
310 309 308 307 307 306 305 304 303 301 300 299 290 287 284 285 286 285 284 283 278 274 276 274 272 271 271 268 267 266 266 265 268 264 263 266 264 266 268 269 272 271 270 267 265 266 264 263 260 259 261 258 257 258 257 256 260 263 263 264 266 266 262 262 259 258 262 258 256 257 257 255 260 265 266 268 268 268 267 264 263 268 271 272 271 271 271
309 309 308 307 307 306 306 304 303 302 301 300 291 287 285 286 286 286 285 282 278 272 275 278 275 272 269 267 269 269 267 267 267 263 263 262 262 266 269 271 270 270 267 263 266 265 264 260 257 260 258 258 258 256 255 256 256 259 262 262 263 262 263 259 259 260 258 257 254 254 252 258 264 265 265 267 268 268 266 263 261 267 268 270 272 270 270
309 309 308 308 307 306 306 304 304 302 301 300 291 287 284 285 286 286 283 281 280 278 275 277 275 272 269 267 268 268 270 268 267 267 265 263 261 263 265 269 270 268 263 265 265 264 263 261 262 263 260 257 257 257 255 256 254 255 258 260 258 258 260 260 258 255 258 256 256 256 257 260 263 265 266 267 267 266 265 259 260 266 268 268 271 271 270
309 309 309 308 307 307 306 305 304 302 301 301 292 287 285 284 285 287 284 282 278 277 270 275 273 270 272 270 269 272 273 271 270 270 266 263 262 263 264 265 263 267 266 264 264 263 261 261 261 260 261 258 256 259 258 258 254 255 254 257 256 256 257 260 258 258 261 262 258 259 261 266 266 266 267 267 266 265 259 259 265 267 269 269 270 270 271
309 309 308 308 307 307 306 305 304 303 301 300 293 287 283 280 280 285 284 282 280 276 273 268 271 274 272 274 274 274 273 272 272 266 262 263 264 266 266 265 267 262 266 263 264 262 261 261 263 262 262 257 257 259 259 257 257 257 258 257 256 257 257 259 258 258 258 259 258 259 261 267 266 267 267 267 264 258 259 267 263 265 268 269 270 271 271
309 308 308 308 307 307 306 305 304 303 302 301 292 286 282 278 278 284 284 280 279 272 269 270 269 271 269 273 270 270 270 273 273 268 267 265 265 266 266 262 268 266 263 264 261 264 263 261 262 260 261 260 258 260 259 257 260 259 257 260 259 260 258 256 257 258 258 258 256 255 254 261 266 266 265 263 262 264 266 265 262 265 268 270 270 271 271
308 308 308 308 308 307 306 305 304 303 302 300 294 279 274 276 275 276 282 281 273 270 270 265 266 268 269 270 269 273 274 272 272 270 271 265 266 269 263 264 266 265 262 264 261 263 264 262 261 260 263 263 261 260 258 257 257 260 261 261 259 263 258 258 258 261 256 256 255 258 264 263 267 269 264 264 269 266 264 266 266 266 265 269 269 269 271
308 308 308 308 308 307 306 305 304 303 302 299 293 285 278 274 275 276 276 277 274 268 267 267 269 267 268 270 270 269 267 268 268 272 268 264 267 270 267 268 268 267 267 268 266 264 265 265 265 262 260 261 262 260 258 259 259 257 255 259 259 266 264 262 261 264 262 260 263 265 263 264 268 269 268 265 268 265 264 264 266 267 267 267 268 270 270
308 308 308 308 308 307 306 305 304 303 302 298 292 286 279 274 275 280 279 268 268 269 270 268 269 270 271 271 272 272 271 271 272 273 274 268 266 268 267 269 268 270 268 270 268 267 266 265 262 265 263 263 262 259 258 260 261 258 259 262 264 259 261 259 263 264 266 268 267 265 262 262 266 269 266 266 265 264 263 266 265 268 268 268 268 269 269
306 307 307 307 307 307 306 305 304 303 301 298 293 287 277 277 278 278 274 272 269 264 268 270 268 267 267 266 268 272 272 271 271 271 272 273 268 266 269 271 269 266 266 268 267 268 267 266 264 265 261 263 264 260 260 259 260 261 260 261 261 262 260 263 261 262 262 260 264 268 269 265 264 267 269 267 265 266 263 263 266 265 265 266 265 264 265
305 305 306 307 307 307 306 305 304 302 301 297 291 284 281 278 281 282 277 270 268 272 267 266 266 266 266 270 270 269 270 270 272 272 273 272 272 271 268 271 271 270 268 267 264 268 268 262 262 262 259 264 267 261 265 262 261 263 261 262 262 262 262 262 263 261 262 264 264 263 263 264 266 267 267 269 269 268 266 268 265 264 263 263 263 263 264
304 304 305 306 306 306 306 305 304 302 301 295 287 279 279 277 282 284 283 279 276 274 266 264 265 267 269 268 266 268 270 271 272 272 271 272 272 272 269 270 268 269 268 268 268 267 267 266 265 265 263 263 266 264 263 262 260 262 262 262 263 262 266 261 262 262 264 266 267 269 267 264 266 266 267 269 270 269 267 266 266 264 263 262 262 261 262
303 303 304 305 306 306 306 305 304 302 299 292 285 283 281 281 284 284 280 279 278 272 270 263 263 265 267 265 269 269 270 270 271 271 271 272 272 272 272 270 268 268 269 268 269 266 267 265 265 263 266 263 261 262 261 262 261 261 259 261 260 264 261 261 262 260 260 263 266 264 262 263 266 268 269 269 269 269 268 264 263 264 265 264 263 262 260
303 303 303 304 305 306 306 305 303 302 295 290 287 282 282 281 283 285 285 285 286 276 271 262 260 263 269 266 268 270 270 271 272 271 271 271 271 272 271 270 269 268 267 267 264 265 265 263 264 262 260 258 262 261 260 259 258 258 261 263 264 266 266 265 263 263 264 268 268 268 269 267 269 268 268 267 267 267 267 267 266 265 265 263 263 263 261
302 302 303 303 304 305 305 304 303 298 290 287 280 279 278 279 278 279 279 275 273 267 266 265 266 266 263 265 268 268 270 271 271 271 271 271 271 271 270 271 269 269 269 268 268 266 265 265 265 263 263 261 262 261 261 258 257 260 266 266 266 269 269 270 270 270 269 266 265 267 268 268 265 265 264 263 264 266 266 266 265 265 265 264 264 264 264
301 302 302 303 303 304 304 303 298 290 288 281 280 277 273 275 280 275 278 278 275 272 266 265 263 261 264 265 265 267 269 271 270 270 269 269 269 269 270 270 270 271 269 267 267 264 265 263 261 260 259 259 262 262 258 260 259 264 264 267 268 269 269 271 271 269 269 267 267 268 266 263 263 262 261 262 261 263 264 264 264 264 264 262 263 262 261
301 301 302 302 303 303 304 298 291 290 287 282 281 274 272 270 276 279 280 279 279 273 268 265 261 264 261 264 265 264 266 269 268 268 268 268 268 268 268 269 269 270 266 266 265 264 264 263 261 261 260 261 265 260 260 258 258 260 263 267 268 268 268 269 271 271 270 263 264 263 264 262 262 263 263 261 259 261 262 261 262 264 262 262 261 261 260
301 301 301 302 302 303 301 293 291 289 285 283 282 280 280 282 281 278 281 279 278 272 267 263 263 262 261 263 263 265 265 266 268 268 268 269 266 267 267 268 267 269 272 265 264 264 261 260 260 260 259 266 268 260 260 258 258 264 264 266 266 268 269 268 268 269 268 265 265 264 265 265 263 266 265 263 261 260 261 259 258 257 259 259 257 257 258
300 300 300 301 301 301 294 292 290 288 284 286 288 288 288 287 285 283 282 280 277 272 274 268 263 264 260 260 263 263 264 266 266 268 265 268 264 267 264 267 268 267 272 267 263 260 260 259 262 260 262 262 260 260 256 258 263 266 263 264 264 265 266 265 264 263 264 263 267 266 265 265 264 264 262 259 259 258 259 257 256 256 256 257 257 258 257
300 300 300 299 301 295 293 291 290 289 287 282 277 278 282 287 284 284 281 278 273 271 271 266 260 258 258 266 260 264 266 264 264 267 261 266 263 265 265 265 267 264 265 263 262 258 261 260 260 260 261 259 261 257 256 261 266 265 265 264 262 261 261 261 260 262 263 261 261 264 261 259 258 257 258 258 255 255 256 255 255 256 257 257 257 258 258
300 299 299 300 297 293 291 289 285 283 278 278 278 280 283 286 285 286 284 281 274 268 266 265 264 258 257 259 259 262 265 264 263 266 262 263 264 264 266 264 265 262 263 265 261 261 259 259 261 259 258 259 257 256 260 264 263 263 264 266 263 260 261 262 263 264 263 261 260 260 255 257 260 260 258 259 257 254 256 255 255 256 257 258 259 258 257
299 299 298 294 291 289 284 283 279 276 274 274 275 283 285 285 283 278 278 277 276 270 267 266 265 262 263 259 258 262 267 261 263 264 264 264 263 264 263 265 261 263 258 260 260 261 259 263 260 257 261 256 258 261 264 263 262 263 264 265 266 265 266 266 264 256 256 257 259 258 258 257 258 260 259 259 258 255 255 256 255 256 256 257 259 260 257
297 294 291 289 286 281 277 276 276 275 275 279 282 285 286 285 283 281 278 276 275 276 269 267 265 265 266 263 263 262 266 259 265 262 263 263 261 263 262 263 261 263 260 259 257 259 260 261 257 256 258 258 262 263 266 266 265 263 263 264 265 266 266 264 261 257 257 254 254 256 257 256 256 257 258 259 259 257 255 257 257 257 258 259 259 258 259
291 289 284 281 278 273 271 271 273 280 285 285 285 280 276 276 272 271 271 269 271 273 269 270 264 263 266 263 258 266 266 262 265 261 261 265 262 259 262 262 263 264 256 258 259 263 258 257 255 255 259 264 266 265 266 264 265 264 265 264 264 266 266 264 260 261 258 257 257 255 255 255 256 257 259 260 259 258 259 260 259 259 259 259 259 259 258
288 283 279 277 276 273 272 273 283 286 283 282 279 271 267 268 271 267 265 265 267 266 268 267 262 264 264 261 262 269 266 262 261 262 259 266 262 257 262 258 265 263 258 258 258 264 256 255 253 253 255 259 261 265 267 267 267 268 268 267 265 264 265 264 263 265 264 265 266 261 262 262 261 260 259 259 260 260 259 259 258 258 259 259 258 257 257
282 278 274 271 270 272 279 282 286 282 280 272 271 272 265 266 267 264 269 264 263 265 267 261 263 262 264 262 261 260 268 265 261 260 262 263 269 261 263 261 263 258 254 255 258 260 257 254 256 252 256 262 263 266 266 266 265 266 266 267 266 265 265 266 264 265 265 262 260 260 260 261 261 262 261 260 260 260 259 259 259 258 258 258 258 257 257
276 273 272 271 274 277 279 280 276 273 271 268 267 266 266 263 263 264 266 264 264 261 263 262 261 262 264 266 266 262 269 268 266 268 266 260 268 266 260 256 264 256 254 254 258 256 256 254 254 255 260 264 263 261 258 260 264 261 259 258 259 261 263 264 264 263 263 261 259 259 259 259 259 259 261 261 261 261 260 259 258 258 257 256 257 256 256
278 277 277 278 279 279 275 271 270 269 267 268 265 261 262 264 264 260 265 266 264 259 257 262 261 262 262 265 264 264 262 264 265 265 264 260 267 262 257 256 257 255 254 257 256 256 255 252 253 256 262 263 266 262 258 259 259 260 257 255 255 256 258 260 261 260 262 263 260 258 258 257 257 257 259 259 259 259 258 258 257 256 257 257 256 255 255
285 282 280 276 275 270 270 269 267 269 264 263 261 261 261 259 262 265 263 261 262 262 262 266 265 268 267 268 264 265 263 267 265 264 263 260 265 261 255 253 253 254 255 255 255 253 252 252 253 260 264 264 261 263 261 260 259 258 257 255 254 254 255 258 260 260 259 261 260 260 258 256 255 255 255 256 257 256 256 257 256 255 255 254 255 254 254
280 278 275 272 271 268 271 264 271 267 263 264 266 263 261 259 264 264 262 260 260 260 262 261 262 265 262 266 262 263 265 265 267 261 258 258 259 255 254 253 254 255 256 255 254 251 254 255 260 263 262 260 257 258 259 259 258 257 255 253 253 254 255 256 257 258 258 258 258 258 258 255 253 253 253 254 255 256 254 254 255 255 254 255 254 254 253
275 272 270 268 267 268 269 261 267 266 267 266 267 268 266 267 267 266 264 265 265 262 264 266 266 266 262 264 265 265 267 261 268 262 256 258 256 255 254 254 251 252 253 251 252 252 254 257 261 260 264 265 265 261 258 259 260 260 258 254 253 253 255 256 257 258 258 259 259 258 257 255 254 253 252 252 253 254 254 254 254 253 254 252 252 253 253
274 272 271 267 262 264 267 265 264 263 265 268 267 269 270 270 269 265 263 265 265 264 264 266 265 264 260 261 264 261 260 262 258 255 256 258 256 253 254 255 255 252 250 251 249 253 256 260 263 265 265 265 266 264 259 258 258 256 257 256 255 253 255 256 256 257 258 258 257 258 257 256 256 254 253 253 252 252 253 253 252 253 253 251 251 251 253
272 270 271 270 264 265 266 264 264 266 265 268 268 270 269 267 265 264 265 267 265 267 267 267 266 265 261 258 259 259 259 260 256 256 258 254 250 252 255 253 251 251 252 251 252 255 258 262 266 265 260 261 261 261 260 257 256 257 256 255 254 254 254 255 256 257 257 257 256 257 256 255 254 253 252 252 252 251 252 252 252 252 253 253 253 254 251
273 272 272 266 263 266 263 263 261 259 259 263 265 265 265 266 265 263 265 268 268 268 266 265 264 265 264 264 264 259 257 257 257 254 256 254 255 251 251 250 250 252 255 255 259 261 260 263 266 267 263 261 260 260 258 257 255 256 256 255 254 254 254 255 255 255 255 256 256 256 255 254 253 253 253 252 252 252 251 251 251 251 251 252 251 251 250
272 270 269 265 263 262 261 262 263 262 261 262 264 267 267 267 265 265 267 269 268 267 269 269 267 265 259 260 259 259 256 259 257 254 254 253 252 251 251 251 250 251 257 259 261 263 265 266 262 260 260 258 257 259 260 259 258 257 257 256 256 255 255 255 255 255 253 254 254 254 254 253 252 251 250 251 252 252 250 250 250 250 250 250 250 250 250
270 267 265 263 262 262 264 265 264 260 261 261 265 267 267 265 265 266 269 268 269 269 267 267 266 262 259 259 256 255 255 257 255 256 253 252 253 254 254 251 254 258 259 261 262 265 264 262 258 257 257 257 256 257 257 257 256 257 257 256 255 255 255 255 254 253 253 253 253 253 252 252 252 252 252 253 252 250 248 248 248 249 249 249 250 250 250
269 268 265 266 266 265 265 265 265 261 259 262 265 265 266 265 265 266 270 269 269 269 269 265 260 259 258 256 257 257 256 258 257 255 257 256 257 256 255 257 259 261 264 265 266 267 266 263 262 260 256 255 256 256 256 257 256 257 257 256 255 255 254 254 254 253 252 252 251 251 252 252 253 252 250 250 250 249 249 250 249 249 249 249 248 249 248
266 265 264 265 267 267 266 266 266 265 264 265 265 266 267 265 267 268 271 270 270 269 265 263 262 259 255 257 259 259 258 257 253 254 255 258 258 256 257 259 261 265 266 263 262 264 264 262 263 262 261 260 258 256 256 255 256 257 256 255 254 254 254 254 253 253 252 251 251 251 251 249 249 249 249 250 250 252 254 255 250 248 249 249 248 247 247
Wind_Speed
22 21 21 20 19 19 19 17 16 14 16 7 4 2 1 2 1 2 2 1 2 3 2 4 1 1 0 3 1 1 0 1 0 2 0 0 1 0 0 0 1 1 1 1 1 4 2 5 4 1 0 1 1 2 2 4 3 1 0 1 0 1 0 1 4 1 1 2 2 1 5 0 0 4 1 0 3 3 4 3 1 0 1 2 5 7 10
22 22 22 21 21 20 21 19 18 18 19 5 5 2 2 2 2 1 1 2 1 2 6 5 6 2 2 1 1 3 1 0 2 1 1 1 1 1 1 0 2 1 1 1 3 3 1 2 3 1 1 1 2 2 3 3 0 0 0 2 1 2 3 4 1 2 1 1 1 1 1 1 2 1 2 4 1 1 1 2 2 1 7 10 4 11 13
23 23 23 23 22 21 22 22 21 20 21 10 3 3 2 3 2 3 2 1 1 4 1 1 5 5 5 3 4 2 1 1 1 0 2 1 0 1 0 0 1 2 2 1 1 2 0 1 2 1 0 2 1 3 5 4 0 4 1 2 1 1 1 4 4 6 5 4 3 3 3 4 2 2 0 0 8 7 2 3 4 5 10 12 8 11 11
25 25 24 24 23 23 23 24 22 23 22 19 1 3 2 3 2 1 1 1 1 1 2 1 0 6 4 1 3 5 2 1 2 1 2 1 1 1 2 1 2 2 2 1 1 2 1 1 1 1 1 1 1 3 5 0 1 3 3 5 2 1 0 1 4 4 8 3 1 0 1 2 2 1 3 3 1 1 2 2 1 14 9 5 11 17 16
27 25 26 25 24 23 25 25 25 24 24 20 4 2 1 0 4 5 3 2 4 4 2 2 2 4 6 3 6 7 6 3 1 3 1 3 2 1 0 2 3 2 4 3 2 0 2 1 2 4 1 1 1 2 1 5 4 2 1 4 1 0 1 4 3 8 4 2 4 0 1 1 3 1 3 5 5 5 6 11 16 6 3 14 17 10 9
28 28 26 26 25 25 26 27 27 26 24 23 5 3 2 4 2 7 2 5 6 6 9 9 5 2 8 2 5 8 7 4 4 1 1 2 2 4 2 1 6 9 10 8 4 2 2 1 4 3 0 3 0 0 3 1 2 3 1 2 1 0 2 4 3 6 2 1 1 1 0 3 3 2 2 3 7 7 11 14 15 5 9 18 6 4 9
30 27 27 27 26 26 27 28 28 28 27 20 7 5 3 1 1 1 1 4 1 11 2 12 11 8 7 1 4 6 9 10 4 4 3 1 2 4 5 7 12 8 4 5 3 6 2 6 5 5 4 4 3 1 1 1 3 2 1 0 1 1 4 1 1 5 3 1 2 2 4 2 3 7 8 8 6 11 14 14 10 11 15 17 18 12 12
31 28 28 28 28 27 27 29 29 27 29 18 7 8 6 7 6 2 2 3 2 1 2 7 9 9 9 6 8 8 10 10 3 1 5 3 4 3 4 6 8 9 9 6 5 10 4 4 5 5 8 1 2 3 3 4 2 2 2 1 1 3 2 6 1 1 4 1 0 2 4 2 6 8 7 9 9 9 11 9 13 11 14 21 19 17 21
32 28 29 29 28 28 28 29 30 30 28 10 12 8 5 1 1 6 8 4 2 1 3 6 9 6 5 8 4 4 8 11 11 4 1 4 10 10 16 7 6 5 9 7 6 1 3 3 3 8 6 5 5 5 1 7 6 4 3 2 0 1 2 2 1 2 3 1 1 3 3 5 6 12 11 11 10 9 11 11 15 10 19 16 8 14 20
33 30 29 30 30 30 30 30 32 32 31 10 9 10 2 3 1 0 4 5 8 7 3 2 6 9 9 9 8 6 14 6 11 1 3 2 2 3 7 9 9 1 6 14 7 4 5 4 4 6 3 4 4 4 3 3 8 7 4 1 4 4 3 2 1 1 4 1 0 2 2 4 9 13 18 21 19 19 12 12 10 15 18 10 13 19 15
33 32 31 31 32 32 32 33 32 38 25 15 12 8 9 11 6 2 1 4 2 6 8 7 11 2 8 9 5 3 6 10 10 11 3 3 1 2 1 11 7 4 10 3 6 10 9 7 5 3 6 5 5 3 4 8 4 3 8 3 0 2 3 2 3 2 1 3 2 1 3 7 11 2 0 5 13 16 17 16 18 20 12 14 14 15 4
34 34 33 31 33 33 34 35 35 41 29 16 10 7 6 5 5 4 6 12 6 8 10 10 13 3 8 10 9 9 10 13 11 2 6 2 2 2 1 1 1 4 2 6 11 11 9 5 6 7 7 6 5 5 7 4 1 1 2 3 4 5 4 3 0 1 1 0 0 3 7 13 2 3 3 2 3 6 15 18 14 12 12 18 19 19 15
34 34 33 31 33 35 34 36 40 40 36 15 12 11 7 6 9 7 7 8 7 11 10 6 2 3 5 11 8 5 6 8 9 9 7 7 3 0 1 0 2 2 10 11 10 7 7 4 4 4 4 3 4 8 8 5 2 1 0 0 5 5 5 2 1 1 1 1 2 1 9 1 3 5 4 2 1 1 1 8 15 16 15 16 18 20 18
35 35 33 31 34 36 34 37 39 41 41 22 15 10 9 9 11 9 9 7 9 8 7 6 4 7 11 10 10 8 9 8 5 6 4 3 5 3 1 0 2 7 6 5 3 5 5 1 1 0 1 0 0 1 1 2 2 2 1 2 1 4 2 2 2 3 4 4 6 11 8 15 13 1 2 5 3 5 5 6 9 8 14 15 16 16 15
35 35 35 39 35 33 35 41 43 43 42 31 14 9 10 10 10 9 4 5 7 2 8 14 11 10 14 9 12 9 4 6 6 4 2 2 5 1 2 2 2 4 2 3 2 0 2 3 1 2 1 2 3 4 1 0 0 3 4 2 2 1 5 2 4 4 7 4 5 4 3 5 5 2 2 3 1 1 1 2 10 4 10 12 14 15 13
35 35 34 35 40 34 35 41 41 42 42 36 15 12 11 11 5 5 7 8 6 5 13 6 16 14 12 6 10 13 11 9 6 5 3 2 3 3 2 2 4 4 3 2 1 3 3 3 4 4 5 5 0 3 2 2 1 0 2 1 1 2 1 0 3 2 2 2 4 4 5 8 2 2 3 0 1 1 1 1 9 2 4 2 10 9 6
35 35 35 36 38 38 37 43 36 43 42 39 18 14 12 12 12 11 8 4 6 10 3 13 12 14 9 7 2 0 8 7 9 6 5 4 4 1 3 3 3 3 2 1 1 1 2 2 1 2 0 3 4 4 3 1 3 1 2 0 6 1 0 0 2 4 4 3 3 8 4 7 2 4 1 3 2 3 1 5 5 2 3 4 1 3 4
34 35 35 36 37 38 41 38 38 43 42 41 20 16 12 9 9 10 6 8 9 4 3 11 18 7 11 10 10 4 6 6 3 5 5 5 6 4 5 3 2 1 3 1 3 2 3 3 6 4 4 0 1 2 5 7 4 5 5 6 4 2 2 5 11 5 6 8 7 4 7 5 4 7 5 4 3 1 2 11 4 0 2 2 2 1 2
32 35 36 36 38 38 41 38 38 41 43 41 17 9 3 9 6 10 6 5 7 8 5 5 3 5 3 6 4 6 3 6 10 12 8 5 3 6 7 1 2 2 2 3 3 3 4 4 0 1 3 2 1 5 2 3 4 3 8 6 2 1 1 2 2 7 9 6 7 9 8 9 7 1 9 5 3 2 11 2 0 0 1 0 1 0 2
32 33 35 35 35 36 38 41 40 39 40 38 23 15 8 12 7 11 14 13 4 4 1 1 2 6 4 11 12 8 4 3 6 9 11 8 8 15 7 3 2 3 2 0 4 3 4 6 5 1 2 4 5 2 1 3 3 8 5 5 6 11 9 7 8 4 2 3 5 3 6 5 8 11 3 0 3 6 1 0 1 3 2 0 0 0 1
29 31 34 35 36 38 40 40 37 36 41 38 25 13 10 3 7 5 4 7 9 8 3 2 1 5 2 3 3 6 16 17 17 9 4 6 18 12 10 11 13 10 10 10 11 6 4 4 5 3 2 4 4 2 5 3 4 5 6 5 3 6 3 3 5 6 6 7 7 10 10 2 9 15 7 8 10 3 4 1 0 1 2 1 1 1 2
26 30 33 35 36 37 38 39 39 39 44 38 25 12 12 4 8 9 10 10 6 3 2 7 2 4 4 4 4 3 6 4 2 1 16 11 13 3 0 4 16 8 4 4 2 1 3 2 2 3 4 1 1 6 1 3 5 2 6 1 1 12 8 4 7 6 8 9 11 4 1 6 10 8 1 2 4 2 3 2 1 0 1 1 1 0 3
22 24 28 31 34 35 36 37 39 38 45 40 27 17 19 15 11 9 14 11 6 6 4 4 3 4 3 2 3 3 2 2 3 2 2 20 8 4 1 6 8 1 1 2 4 3 4 6 5 4 2 4 8 3 2 3 0 4 7 8 4 3 2 0 1 5 5 8 6 1 0 2 7 8 2 1 0 0 2 3 1 1 1 0 1 1 1
19 22 23 28 30 33 35 36 40 44 46 40 30 18 14 18 18 16 11 7 5 7 3 1 3 3 3 4 4 3 4 4 5 2 3 1 14 4 3 3 2 2 1 2 1 3 4 2 2 1 2 4 5 3 7 7 8 5 0 1 3 4 3 1 3 2 3 6 2 10 11 5 5 8 8 6 4 4 4 4 5 3 1 0 1 2 0
18 19 22 25 30 33 34 36 39 42 43 39 17 10 15 13 16 21 22 16 9 11 7 5 1 3 1 2 1 3 4 3 2 2 2 5 2 9 10 6 5 5 7 6 1 2 2 4 0 2 3 3 8 4 4 3 4 7 6 5 2 3 4 3 7 3 6 7 1 4 1 1 4 8 8 10 10 7 6 7 4 4 2 3 3 2 1
16 17 19 22 27 30 32 35 38 41 42 35 28 23 22 21 17 14 11 9 8 6 8 6 4 3 3 3 3 2 3 3 3 3 6 3 2 3 13 7 5 2 5 3 2 2 3 1 2 2 4 4 2 3 1 3 2 0 5 6 3 4 7 5 5 6 7 9 14 17 8 5 8 8 8 9 9 7 6 6 6 5 5 4 3 3 4
17 16 17 18 22 28 32 34 37 36 41 33 21 15 15 15 20 24 22 19 17 3 1 4 4 2 3 4 3 1 2 1 2 4 6 4 6 3 6 10 10 4 5 3 1 2 1 1 1 3 1 2 1 0 1 1 1 1 3 3 1 7 6 2 3 2 5 10 12 3 2 7 4 7 12 11 10 7 6 4 5 6 7 6 6 5 4
17 17 16 18 19 23 29 32 37 40 39 29 14 9 10 17 16 11 11 13 17 7 10 8 7 6 4 3 2 1 2 2 3 5 6 5 5 6 8 9 8 6 4 6 3 1 1 4 3 1 2 1 2 1 1 1 1 3 8 8 8 10 10 8 7 6 10 7 9 7 8 5 1 3 3 4 4 5 6 7 7 7 6 5 5 5 5
18 17 17 17 18 19 28 33 39 39 37 24 15 14 9 7 6 4 7 7 15 12 13 10 9 7 7 3 3 2 1 2 5 7 7 7 6 6 7 6 5 5 4 2 2 3 2 1 2 3 2 2 1 2 2 3 3 10 12 8 12 11 7 14 15 10 5 2 3 5 5 6 1 0 2 2 1 4 6 6 4 4 6 6 6 7 7
18 18 17 17 18 19 22 30 42 41 35 20 16 9 7 2 1 1 3 10 13 11 10 9 8 2 2 2 2 2 3 5 6 8 8 8 7 5 3 4 4 2 2 2 3 3 2 4 1 0 1 1 1 1 3 2 4 10 3 11 16 12 10 11 8 8 9 1 1 1 1 2 1 1 1 1 1 1 4 4 2 2 1 5 6 5 5
18 17 19 17 18 18 21 41 45 45 36 20 17 8 9 8 12 9 12 10 7 14 7 8 8 5 4 1 1 4 2 6 6 8 7 6 6 3 1 2 3 1 4 1 2 0 1 2 2 0 1 2 1 1 3 1 4 8 6 10 12 13 12 14 10 9 5 3 2 2 2 1 2 0 1 2 2 2 1 1 1 3 1 2 2 2 4
17 19 16 19 18 22 27 44 44 43 24 22 22 15 12 16 22 22 19 13 13 13 11 11 7 3 3 3 1 2 2 1 2 3 3 2 3 2 5 3 3 2 1 3 2 2 1 0 2 2 2 1 2 2 0 3 3 15 4 7 6 9 9 8 7 6 3 5 4 1 5 5 5 6 5 2 5 4 4 3 2 2 2 1 1 1 0
18 17 19 15 23 13 49 44 47 28 16 11 19 22 31 42 44 31 19 12 11 5 4 8 9 5 4 3 4 3 3 2 2 2 3 2 2 1 2 1 1 2 2 4 0 3 0 1 2 2 1 0 1 1 3 9 19 9 5 4 5 5 5 1 0 0 2 5 7 9 9 6 5 3 2 4 4 4 4 4 3 2 2 1 0 1 2
17 19 16 22 11 40 41 42 33 27 15 10 8 7 19 42 32 29 14 11 8 5 4 7 7 6 5 3 4 2 4 3 4 4 4 2 1 1 3 2 2 2 2 3 1 4 0 2 1 2 1 2 0 1 5 17 22 9 4 2 3 1 1 1 2 4 6 5 4 3 1 2 3 3 4 4 4 2 3 4 4 2 1 1 4 4 3
18 17 23 12 37 41 41 33 19 8 9 7 7 4 22 35 25 20 14 11 12 2 6 3 5 8 6 2 3 4 3 1 7 3 4 1 1 2 3 3 1 2 2 3 1 3 3 3 3 3 6 2 2 7 11 19 5 5 8 10 6 5 1 2 7 9 7 5 3 2 3 2 2 2 4 3 4 4 4 2 2 3 2 5 5 5 3
20 11 16 35 39 28 14 13 6 6 6 7 12 21 28 22 20 14 14 11 6 8 6 5 6 8 9 13 10 5 5 4 1 3 3 3 2 2 1 2 3 1 1 1 2 2 3 1 3 3 4 4 11 14 13 2 4 7 8 10 10 12 10 13 7 3 2 2 3 1 3 2 5 5 3 4 4 4 4 4 2 2 4 4 6 5 3
24 39 42 32 16 9 8 4 3 3 7 15 26 30 25 16 9 8 9 6 6 2 7 8 8 7 5 7 4 4 8 8 4 4 2 3 4 1 1 0 3 2 2 1 1 3 1 2 2 2 5 10 12 3 8 7 7 5 6 7 8 10 9 6 6 9 5 5 6 1 1 3 4 4 4 5 5 5 5 6 8 7 7 9 7 5 6
40 37 20 11 8 7 5 3 2 21 39 40 30 16 8 7 6 2 4 6 2 4 3 5 5 4 3 8 7 10 6 4 2 6 1 2 4 0 0 1 4 4 1 2 3 4 3 1 3 4 10 15 16 11 13 6 6 5 6 7 8 9 9 6 9 8 8 2 2 1 0 1 6 6 7 9 7 8 10 7 5 5 5 5 5 4 2
28 7 7 3 3 4 6 10 25 38 20 7 4 5 3 1 4 3 1 1 2 4 3 5 5 2 7 9 8 3 1 9 8 2 7 7 4 0 1 3 2 4 1 1 3 6 0 3 2 2 11 7 4 20 17 11 13 15 13 9 7 8 8 8 11 14 14 13 10 10 12 10 10 11 9 8 6 6 5 5 5 5 6 5 5 4 4
11 9 4 4 3 7 13 24 32 13 4 6 4 5 6 2 4 3 1 4 3 2 2 5 2 2 2 19 21 7 4 8 10 8 6 5 1 5 3 2 1 4 2 3 2 2 3 3 2 0 11 9 12 14 8 10 11 11 10 10 9 9 9 11 10 9 7 3 2 4 5 3 2 4 8 9 8 7 6 5 6 5 5 6 4 4 6
2 6 5 7 11 13 13 10 3 4 4 3 3 2 3 2 2 1 3 1 1 3 1 6 3 5 4 4 7 12 4 2 3 4 5 3 2 4 2 2 2 3 1 2 1 2 1 0 3 5 13 4 3 2 0 4 7 4 2 3 4 6 8 8 8 7 6 5 3 2 2 1 2 6 6 9 9 8 8 7 7 7 5 5 6 5 2
2 4 8 11 9 11 6 4 1 3 3 1 4 3 1 2 3 3 2 8 8 4 2 4 8 9 9 5 4 5 4 2 2 2 3 4 2 4 2 0 2 2 2 1 2 1 1 2 3 7 9 4 9 5 5 4 4 5 4 3 3 3 3 5 6 5 7 8 5 4 4 5 5 4 5 7 6 6 5 5 5 5 6 6 3 2 2
33 21 11 12 7 2 0 2 2 2 4 2 3 3 1 5 6 7 4 1 1 6 4 4 6 7 5 4 7 5 4 3 2 2 3 4 1 3 3 1 1 1 3 1 2 2 2 5 6 14 3 1 2 5 7 6 4 4 4 4 3 2 4 5 6 7 5 7 7 7 6 7 6 2 2 4 7 7 3 3 5 4 4 4 4 3 3
12 9 7 1 3 1 1 2 1 3 2 0 6 11 9 5 5 5 6 7 5 5 4 14 13 17 12 1 6 5 3 2 2 4 3 1 2 2 2 3 3 1 2 1 1 3 7 5 14 7 0 1 1 3 4 5 5 5 4 3 2 2 2 2 2 4 4 4 5 5 6 6 6 2 2 2 4 8 4 1 1 3 2 3 3 2 2
11 2 2 2 1 1 2 1 1 1 6 7 4 5 11 19 17 12 7 5 7 15 10 12 13 13 15 6 4 2 2 4 1 4 2 3 4 1 2 2 1 1 2 3 2 3 2 11 7 4 12 12 8 5 5 6 7 8 7 4 3 3 4 6 6 6 6 7 8 7 6 5 4 4 2 2 1 1 5 4 4 4 4 3 3 1 1
6 11 8 6 5 3 1 1 2 4 4 3 5 5 4 2 10 8 3 4 12 15 16 15 13 15 12 1 4 5 2 3 5 1 2 1 4 1 0 0 1 2 1 0 3 8 12 9 4 8 9 11 10 8 7 7 5 5 9 6 7 6 6 6 8 7 8 7 6 6 6 5 5 4 3 3 3 3 2 3 4 5 5 4 4 3 3
5 2 2 1 2 1 1 5 7 2 1 2 1 4 7 10 11 10 7 10 17 15 16 11 11 10 15 5 5 3 3 2 5 1 1 3 2 1 1 2 2 3 4 5 6 9 9 6 8 5 3 4 5 8 9 7 7 8 5 4 8 7 7 6 7 7 7 6 6 6 5 5 4 3 3 3 2 2 3 3 3 3 4 4 3 3 3
7 2 2 3 6 5 9 3 2 2 3 1 5 11 13 13 15 12 8 12 16 18 20 16 15 9 8 3 5 5 3 2 5 1 1 3 2 2 1 0 2 3 4 6 11 6 4 4 8 8 7 7 9 10 8 9 8 9 8 8 9 10 9 10 9 7 7 10 9 8 6 6 5 5 5 5 4 2 4 4 4 4 3 2 2 2 3
3 2 3 3 2 2 3 3 5 8 2 1 5 11 13 15 14 14 12 12 17 16 14 14 11 8 6 1 4 3 1 2 4 3 1 0 2 5 5 4 3 3 8 10 7 3 6 6 2 4 7 7 6 9 9 9 10 10 9 10 10 11 10 10 9 9 8 6 6 7 6 5 5 5 4 2 2 2 2 3 5 4 4 4 4 4 3
4 2 3 4 5 5 2 3 9 9 1 3 7 11 11 16 16 12 12 17 14 15 10 9 7 8 4 3 3 2 1 0 3 2 3 3 3 2 3 2 7 7 4 6 8 7 4 5 5 6 6 7 7 8 9 7 6 7 6 5 5 7 8 9 9 7 8 6 7 7 8 7 6 6 7 7 4 4 4 3 4 4 4 4 4 4 4
2 3 1 3 1 7 12 13 16 17 11 8 11 13 15 18 20 17 10 15 15 14 12 8 4 6 4 3 3 3 3 3 4 3 5 5 4 4 5 7 7 8 7 5 7 7 7 7 7 7 6 6 6 6 6 8 9 8 7 6 6 5 5 7 8 8 7 5 7 8 7 6 5 5 3 5 6 4 2 2 4 4 4 4 4 4 4
2 3 2 3 4 7 0 6 8 8 8 8 11 10 14 16 12 16 12 15 17 18 13 6 7 5 3 5 4 3 3 3 1 1 0 5 4 6 7 7 5 8 7 3 4 6 6 6 6 9 9 10 9 8 6 6 7 7 7 7 7 8 8 7 7 7 7 6 5 7 5 5 6 5 4 5 4 3 1 2 3 4 4 4 5 5 4
Wind_Direction
207 209 211 210 205 207 204 198 196 192 175 163 187 189 162 197 106 288 260 261 217 147 185 110 147 224 44 310 76 24 226 119 302 161 3 123 204 34 153 203 97 3 99 150 146 173 197 157 215 172 91 92 46 351 34 333 302 325 151 21 126 267 169 253 272 95 70 117 127 46 25 299 274 221 227 142 213 221 235 252 332 43 285 262 254 232 267
203 204 207 206 204 202 202 197 193 191 188 188 150 150 193 151 112 158 173 196 238 174 189 181 209 139 299 99 127 28 71 68 155 175 191 171 153 174 134 22 25 174 320 24 156 181 186 211 169 201 188 146 283 17 317 34 18 11 29 135 299 105 249 159 273 297 313 325 270 323 30 22 219 236 187 210 168 70 143 118 264 268 222 245 212 249 255
200 200 202 203 202 200 200 197 193 192 195 214 197 182 147 103 52 74 132 112 240 198 290 169 180 170 149 141 170 147 144 82 22 32 156 54 71 99 174 51 122 82 89 60 333 351 118 168 338 87 63 82 187 57 351 344 358 34 70 324 333 143 293 142 175 218 244 253 264 229 208 222 216 254 115 295 187 202 99 271 224 249 245 228 239 261 256
198 198 197 198 200 199 199 196 194 193 193 209 140 246 92 178 167 164 59 218 321 280 116 33 323 130 137 88 210 146 173 123 169 51 71 87 96 51 109 159 109 101 97 90 240 204 39 90 220 147 142 161 85 293 311 264 2 73 2 19 4 230 10 207 229 208 237 222 134 209 132 310 189 253 180 213 174 243 227 0 292 230 257 273 240 239 260
198 196 194 193 195 195 196 196 194 192 193 199 179 283 209 294 219 146 171 21 260 245 174 183 178 186 164 182 151 193 175 134 139 205 185 151 164 105 131 178 140 207 121 183 122 300 65 52 57 228 153 50 87 338 77 333 284 306 352 4 29 5 307 269 274 251 245 142 188 116 311 206 286 169 236 198 177 182 185 198 230 241 345 267 248 240 248
199 196 192 190 192 193 195 196 193 190 192 191 189 204 171 175 228 147 198 148 188 193 239 189 199 60 168 206 109 174 148 175 168 16 105 41 332 141 308 181 241 176 177 146 172 161 154 107 228 36 59 118 290 48 346 101 209 160 69 354 90 151 222 295 78 276 97 237 137 92 71 225 239 264 290 244 192 182 198 226 239 234 230 246 265 126 234
200 195 189 187 188 188 191 192 191 189 189 184 190 176 219 55 46 104 21 193 234 187 157 165 183 169 193 121 155 159 176 199 189 162 117 192 244 196 214 216 210 194 184 165 151 157 134 259 201 175 170 180 139 148 8 234 221 180 132 63 200 78 258 220 167 293 314 243 189 160 196 254 248 240 239 235 238 215 212 234 232 227 243 254 264 267 262
202 194 188 186 186 185 185 189 188 187 183 182 193 222 160 202 164 163 344 61 88 29 138 160 159 191 192 179 213 171 187 187 137 348 144 167 243 156 232 223 171 185 192 199 178 212 194 177 184 206 122 90 232 211 190 148 180 206 162 159 292 134 268 103 181 345 271 2 333 220 230 240 265 254 236 236 238 260 244 241 239 233 259 255 261 271 271
203 193 188 186 185 182 184 186 185 184 177 173 197 217 207 70 59 140 136 185 165 66 123 146 174 183 180 210 176 155 195 205 170 181 345 165 171 173 207 169 125 155 191 215 239 4 156 106 173 184 157 184 196 157 272 130 145 179 159 166 344 116 243 65 136 352 280 303 293 255 238 244 260 277 258 233 220 234 234 221 226 192 231 240 247 256 252
204 196 187 186 184 181 183 184 183 183 180 176 175 213 140 100 94 285 148 174 161 152 166 127 132 220 196 184 179 181 206 150 141 163 172 47 20 195 154 147 128 90 164 220 200 122 95 108 70 94 92 97 74 64 111 134 152 163 170 128 142 190 149 145 143 164 249 289 256 317 336 329 287 254 242 223 217 218 231 235 236 217 221 233 232 240 251
205 199 189 186 184 182 181 184 182 183 178 187 180 192 165 179 159 118 69 189 189 193 154 198 188 209 140 188 127 25 139 154 178 179 246 119 173 35 235 155 158 166 202 183 109 111 111 108 103 91 73 72 66 68 79 65 101 157 155 151 202 149 202 191 157 196 215 306 322 319 9 285 246 220 269 179 204 211 223 236 225 229 192 226 226 251 272
206 201 192 184 184 181 180 183 185 186 187 191 178 182 174 117 113 115 162 214 204 165 185 199 191 190 172 164 159 169 160 171 187 26 143 148 101 312 104 44 120 190 122 131 118 117 119 93 66 56 57 53 57 66 70 90 60 71 163 145 156 169 178 214 189 222 270 168 13 349 253 252 257 220 233 295 258 230 218 243 248 242 229 241 256 258 256
206 201 192 184 184 184 180 183 188 190 190 181 185 190 183 181 166 175 186 205 211 170 202 217 30 92 129 122 92 54 75 76 73 84 86 121 128 167 306 134 173 90 154 144 135 115 87 97 55 81 76 47 45 53 44 46 62 306 200 262 143 175 164 177 272 186 1 84 160 222 236 233 256 204 189 187 355 293 3 285 251 244 235 229 239 249 251
207 203 193 180 184 185 182 185 188 191 191 180 190 188 166 173 180 179 194 186 222 168 183 67 132 134 139 145 118 116 96 72 71 66 78 33 116 116 143 259 62 148 154 142 121 113 67 132 63 153 312 62 10 286 296 80 19 348 188 225 269 171 189 169 233 152 190 204 193 237 320 320 293 267 246 162 193 174 154 244 282 204 228 221 233 245 246
209 206 200 194 187 182 184 188 190 190 191 186 184 171 174 189 188 182 165 181 214 164 178 202 178 168 139 134 135 121 117 157 140 58 14 22 72 60 99 129 124 88 54 132 134 214 162 137 120 149 221 108 225 238 78 300 293 19 335 336 311 326 176 231 129 251 170 251 309 324 327 264 288 203 32 194 345 178 266 49 289 234 231 206 217 232 242
211 207 204 200 195 187 185 192 190 190 190 185 179 185 188 183 151 147 190 197 112 221 217 205 138 152 144 158 172 153 159 163 138 104 102 71 24 85 92 104 88 85 44 35 164 143 181 134 194 162 210 200 222 83 245 119 39 43 317 7 326 337 87 133 152 271 68 227 204 219 216 243 166 168 184 173 95 33 20 78 278 276 324 262 194 229 231
212 208 205 202 199 194 188 191 188 191 190 183 182 179 193 177 176 179 161 158 179 217 55 145 137 127 98 102 85 127 152 140 149 145 166 175 172 108 120 109 62 72 341 88 214 131 163 195 229 201 332 149 136 199 113 145 133 331 7 25 76 23 337 8 316 241 199 159 227 245 207 258 235 185 196 172 126 98 68 337 280 310 349 344 15 191 197
214 210 206 203 201 196 192 191 190 191 188 185 173 177 184 175 177 152 178 189 198 214 239 151 139 151 180 164 159 151 117 103 75 44 72 107 129 177 160 136 104 10 180 140 173 153 183 195 190 202 207 235 276 97 228 155 175 182 174 160 146 168 225 196 221 207 234 212 257 309 281 269 174 173 163 148 158 107 330 242 232 253 14 4 45 7 92
217 212 209 205 201 198 196 192 190 190 188 183 162 130 190 169 159 174 166 178 186 213 142 339 342 119 91 80 100 133 166 161 147 121 129 123 189 140 141 122 150 155 180 198 140 199 174 227 63 212 183 236 157 205 144 134 193 106 127 133 136 197 125 239 179 234 215 218 230 245 277 242 177 182 145 160 94 218 224 247 205 14 37 35 296 91 129
221 215 211 208 204 200 196 194 190 188 187 176 157 177 149 141 171 177 180 186 144 114 326 19 329 149 232 150 151 139 99 127 174 134 167 134 131 140 125 54 251 105 138 313 179 233 176 211 197 108 256 171 222 146 252 243 121 159 174 205 155 183 156 200 190 205 169 214 234 333 282 293 122 121 84 31 135 232 186 190 281 211 309 190 76 186 143
228 220 214 210 205 200 196 193 187 184 185 175 159 127 135 62 111 72 68 125 124 113 220 144 325 40 24 27 32 167 162 175 170 167 160 118 170 153 154 201 174 162 180 170 178 201 181 198 161 185 211 154 207 108 211 155 272 264 144 184 192 180 129 188 206 176 157 168 185 209 218 158 164 144 180 207 211 167 185 181 221 204 241 294 151 229 159
240 226 217 211 207 204 200 196 188 184 184 172 153 147 135 148 100 96 80 72 87 77 67 114 98 93 50 38 80 79 111 56 328 29 135 121 195 212 34 104 156 165 168 157 135 174 205 173 127 167 193 160 72 205 188 122 227 245 340 110 259 194 188 166 179 201 169 199 216 229 224 180 202 198 173 203 184 135 148 112 151 229 230 218 17 153 149
267 244 228 219 211 206 201 194 188 183 183 168 155 172 163 143 158 143 98 86 78 96 110 75 101 79 71 98 126 93 73 337 20 12 148 137 181 233 178 137 175 167 151 217 191 165 157 135 189 152 125 190 177 180 285 195 239 156 180 231 242 313 226 113 66 241 275 276 226 184 209 227 232 255 210 151 269 153 142 171 216 227 134 131 185 30 35
280 267 245 228 219 209 202 195 188 184 182 169 167 161 146 153 145 119 88 83 124 117 68 146 128 167 159 151 84 37 34 41 24 341 318 181 147 190 319 267 100 84 215 170 148 137 147 112 193 104 198 213 128 168 179 232 229 167 133 274 248 216 145 155 191 265 89 265 283 216 234 204 222 230 260 266 213 207 174 198 212 213 153 187 63 150 111
288 285 266 241 224 212 203 195 185 180 179 167 132 91 122 140 164 153 147 148 174 157 153 161 108 64 25 95 56 25 43 355 283 16 18 36 3 168 182 162 144 160 178 165 168 68 74 111 143 171 176 249 136 243 186 136 275 150 202 216 158 290 170 143 224 220 195 234 248 280 247 243 209 199 225 244 247 235 205 208 198 191 176 171 172 137 257
283 285 281 261 236 218 207 197 187 179 175 158 143 155 161 167 163 146 109 77 81 96 113 170 169 106 264 85 10 29 322 298 85 85 76 47 60 91 119 119 83 50 103 122 94 127 145 114 161 184 147 270 93 194 214 199 176 240 191 222 189 158 125 220 167 194 260 299 288 274 274 267 244 227 223 225 229 233 231 214 210 190 189 206 202 184 197
279 279 280 277 252 226 210 195 183 172 168 154 151 157 149 148 160 161 162 156 121 35 115 105 128 93 100 67 53 129 248 193 146 106 88 90 89 79 106 118 118 116 114 90 72 96 49 101 116 204 206 225 90 176 111 335 93 221 249 230 158 102 216 196 100 225 262 223 242 171 241 275 268 229 225 229 229 219 228 191 208 212 220 215 213 239 241
282 278 279 280 268 240 220 194 181 171 157 143 120 114 138 152 169 157 144 163 165 157 136 119 129 161 99 56 43 53 98 143 145 121 114 97 99 106 119 125 120 126 136 130 127 146 143 136 219 87 73 295 81 268 76 120 87 309 241 221 180 187 202 147 193 182 242 236 224 192 212 248 231 191 203 195 198 186 207 216 218 220 216 202 198 234 241
284 279 278 279 275 253 224 191 174 151 134 119 110 99 71 27 13 27 101 89 100 100 94 94 87 117 150 147 85 68 51 133 128 113 104 103 107 113 117 124 124 133 126 119 137 116 155 161 75 154 184 229 83 222 113 238 183 234 238 157 183 225 158 184 209 222 254 152 206 183 182 216 221 92 129 122 83 162 203 221 219 209 199 192 196 208 215
287 283 277 277 276 266 223 177 148 133 128 124 121 102 94 341 336 62 147 126 118 118 115 135 128 161 45 29 49 44 109 107 103 97 96 97 98 102 85 98 102 119 106 151 147 154 149 116 95 50 310 308 147 123 144 220 228 258 177 164 199 210 216 220 216 198 235 185 135 142 141 120 101 144 159 181 239 165 175 204 194 171 155 162 187 217 213
287 287 282 277 274 265 215 150 140 141 135 144 137 120 142 154 207 171 159 137 131 92 94 63 96 117 76 78 51 12 353 113 95 92 83 89 91 89 30 62 50 58 105 57 55 142 96 125 111 196 41 230 203 158 206 189 261 288 230 178 192 201 208 222 223 230 230 145 123 125 103 128 183 106 273 221 232 185 126 111 52 87 111 133 179 191 216
287 287 284 283 280 272 168 143 147 146 149 158 170 182 204 210 154 155 157 141 119 87 112 115 101 85 98 93 339 278 336 22 93 99 93 109 61 57 40 35 103 13 55 106 126 84 97 313 86 186 143 271 74 237 71 216 221 249 131 184 187 200 207 217 229 246 227 155 132 316 291 253 185 193 236 209 185 178 151 128 93 76 66 88 57 35 27
290 288 288 286 294 196 151 152 151 148 147 94 72 88 102 107 128 141 137 123 64 95 90 89 107 134 91 177 96 299 207 146 116 151 82 48 116 77 65 63 84 74 4 96 153 153 124 75 131 88 217 9 138 232 217 225 232 227 140 193 195 195 200 192 143 269 215 192 168 199 227 235 222 221 142 113 108 147 148 134 142 106 91 98 270 271 268
290 290 287 296 264 151 150 142 130 110 83 73 44 64 119 127 130 137 128 88 90 96 79 103 115 93 108 116 96 195 142 175 134 164 87 39 253 58 120 82 222 92 322 120 175 74 133 89 174 159 65 266 265 58 256 245 240 231 224 203 185 110 72 317 281 257 238 223 246 226 218 146 115 117 99 107 99 50 73 105 119 136 168 203 251 232 222
288 291 298 229 156 145 135 130 124 100 110 98 72 56 128 127 125 131 120 135 121 114 97 74 101 113 123 144 131 175 147 167 153 173 109 132 1 127 153 93 55 133 254 74 72 138 120 215 152 107 217 106 104 239 238 250 234 161 217 225 204 142 92 299 267 228 226 213 207 213 120 142 129 168 178 174 156 154 142 153 179 158 207 240 241 248 211
294 282 138 127 116 112 84 46 44 105 76 102 116 124 114 97 88 78 72 55 63 126 107 137 129 141 141 148 168 163 129 39 42 64 110 134 55 6 50 137 97 173 88 105 149 126 149 241 98 231 181 153 224 209 233 198 224 202 198 207 203 182 200 204 203 84 64 68 134 136 153 155 206 226 197 192 169 169 166 151 162 169 218 252 254 241 212
125 123 120 118 115 73 68 63 76 2 136 128 118 109 95 88 56 46 29 54 23 37 118 149 133 164 156 133 85 172 154 135 164 81 133 133 145 124 88 74 134 136 65 46 40 167 202 46 126 234 205 212 237 187 241 234 221 199 211 205 201 204 212 216 149 130 99 65 64 58 148 208 247 245 232 227 191 169 161 194 196 183 209 228 241 238 232
127 128 125 127 115 109 84 11 147 128 120 117 109 89 5 356 110 9 19 37 333 65 23 69 81 116 97 104 124 178 117 113 118 117 113 195 106 246 269 141 195 124 174 180 225 131 106 73 217 210 259 248 265 283 260 223 235 234 227 206 200 198 198 180 145 140 146 170 273 203 343 260 249 237 211 224 198 193 210 208 202 207 223 233 233 222 232
126 101 58 15 72 117 142 146 136 126 112 75 42 66 49 325 84 58 346 74 17 59 324 83 134 147 117 84 95 141 132 152 150 164 138 203 120 241 178 133 206 91 237 47 279 133 164 208 260 251 266 247 225 246 245 245 246 240 234 222 196 194 184 184 176 181 188 205 205 186 181 193 211 230 210 216 211 215 211 200 206 212 215 226 234 228 229
131 126 103 91 45 104 115 133 131 107 82 74 7 79 96 348 95 137 96 79 31 339 102 94 86 92 289 145 143 167 237 153 153 161 145 122 314 145 199 88 224 98 193 184 195 78 149 228 210 112 275 240 234 257 233 221 227 238 227 228 212 200 190 188 200 210 205 193 134 182 203 219 201 186 179 190 185 193 209 208 209 203 201 216 212 204 220
35 79 97 104 127 129 135 132 56 45 84 71 72 38 91 63 339 149 112 87 127 178 358 116 102 91 74 107 99 119 158 91 7 66 93 103 206 92 82 162 227 82 225 172 205 87 133 2 256 211 249 198 191 244 281 193 213 206 186 170 179 183 189 197 198 192 193 181 141 116 130 120 157 164 170 168 172 183 191 191 193 199 195 197 203 218 206
92 101 113 107 98 110 89 17 22 88 46 62 102 60 1 103 66 28 200 171 184 131 245 157 135 135 134 135 99 103 84 285 120 99 113 131 181 119 146 13 348 136 187 213 93 69 97 218 243 252 253 204 239 200 163 173 204 184 183 153 143 146 159 179 186 200 189 186 172 158 141 117 122 148 154 147 157 161 160 158 170 179 194 211 200 193 172
96 96 97 119 119 97 234 70 309 120 127 88 100 76 323 112 211 165 172 331 23 114 150 54 90 95 68 90 60 11 122 177 120 123 91 130 85 62 106 35 95 184 196 78 86 113 200 225 233 249 234 221 218 193 205 187 171 150 140 136 140 157 167 181 184 189 190 170 163 159 156 131 120 97 96 116 113 106 97 134 160 174 184 178 190 193 194
98 103 94 25 99 242 136 124 208 55 23 208 149 159 176 155 213 160 175 182 167 107 183 139 159 143 136 305 129 143 87 18 88 88 42 334 92 120 92 165 186 216 34 93 116 176 226 242 230 236 298 278 282 219 192 176 150 128 112 104 105 131 166 187 158 136 163 146 131 134 125 124 119 84 74 98 141 154 162 145 170 138 138 140 163 184 190
127 62 20 88 42 235 88 306 335 145 193 199 194 164 175 189 183 168 151 133 139 146 155 140 146 124 118 148 95 43 111 136 179 105 177 146 77 34 112 166 120 37 125 181 215 281 294 256 245 212 242 237 230 207 197 182 174 163 155 130 153 161 172 173 179 166 168 172 167 148 146 141 127 142 148 156 155 146 143 159 170 146 162 167 176 174 203
133 152 163 131 146 266 182 149 120 190 262 165 204 209 168 66 119 125 73 123 119 133 143 141 126 116 100 319 110 153 114 126 75 13 125 121 112 154 237 333 94 91 44 10 210 224 222 233 242 222 229 224 216 190 174 173 155 129 120 162 188 177 182 177 175 169 170 166 164 163 161 151 153 155 180 189 172 171 163 155 145 159 156 151 184 198 201
94 346 140 66 83 244 77 180 214 217 61 93 44 78 89 95 94 108 121 127 129 132 115 111 113 125 122 153 99 46 46 58 100 238 78 69 128 155 359 122 168 185 170 222 232 238 249 228 230 236 207 193 170 164 157 155 154 158 165 136 143 167 174 170 171 165 166 153 151 159 164 166 160 142 125 129 198 195 180 173 173 165 162 186 187 160 148
148 145 118 154 182 168 192 234 78 123 294 54 96 111 120 122 113 113 133 138 130 131 128 129 118 109 74 353 56 111 131 161 97 316 153 146 96 69 76 32 244 238 209 190 224 205 209 236 215 212 186 167 154 149 149 153 159 160 154 150 159 161 171 167 168 166 155 155 163 163 162 156 156 159 171 175 163 178 180 182 177 171 165 151 140 148 163
87 130 136 133 120 109 66 91 140 88 54 5 136 122 127 119 119 128 133 130 134 134 138 124 132 100 104 154 96 106 61 250 119 190 97 30 135 174 165 192 178 246 238 202 236 187 207 207 193 137 144 147 159 159 166 166 161 167 167 168 176 174 167 167 167 161 152 146 152 155 161 163 149 148 140 127 162 219 161 154 156 164 171 171 177 182 194
101 49 71 108 95 16 91 102 88 105 182 214 168 133 126 116 123 131 144 132 137 126 104 60 41 76 133 122 89 39 99 124 126 129 86 193 192 167 108 211 220 201 238 191 208 206 187 150 132 148 167 157 156 154 154 165 165 168 177 165 152 153 162 156 150 152 156 158 156 156 148 138 151 158 165 182 181 140 129 137 157 171 186 190 177 182 195
356 94 144 286 184 170 160 163 166 153 195 190 163 156 148 140 143 146 172 139 139 131 134 138 151 115 114 59 112 141 217 155 93 177 173 187 189 158 197 211 220 194 228 220 194 178 169 165 161 151 163 171 172 165 153 157 166 174 165 151 153 142 138 137 138 140 142 140 137 128 143 166 166 153 134 114 116 125 144 209 203 192 190 191 193 190 198
32 62 2 346 55 94 291 48 52 122 138 138 140 154 131 130 148 140 162 146 149 149 154 151 124 114 110 156 183 120 99 73 162 116 174 249 156 171 212 197 195 197 190 146 158 163 143 166 165 162 162 169 170 167 152 143 151 152 154 153 150 146 144 144 144 144 139 134 144 142 128 117 112 116 117 105 101 119 147 198 181 179 172 180 195 197 195